{"data":{"norad_id":63125,"epoch":"2026-05-24T17:23:37.941216Z","epoch_age_seconds":102064,"freshness":"FRESH","line1":"1 63125U 25040A   26144.72474469  .00000117  00000+0  81787-5 0  9992","line2":"2 63125  97.3477 259.6933 0001041  99.9199 260.2155 15.21576748 68613","mean_motion":15.21576748,"eccentricity":0.0001041,"inclination_deg":97.3477,"raan_deg":259.6933,"arg_perigee_deg":99.9199,"mean_anomaly_deg":260.2155,"bstar":8.1787e-6,"rev_number":6861,"period_min":94.638670175052,"perigee_km":500.36794137591,"apogee_km":501.80019520233,"semimajor_km":6879.2210682891,"source":"CELESTRAK","updated_at":"2026-05-25T13:38:03.510414Z"}}